DW8947 Weather Reports


Display with metric or nautical units.
time (UTC)temp
F
wind
direction
speed
MPH
gust
MPH
rain 1hr
in
rain 24hr
in
rain mn
in
humidity
%
barometer
mb
20260509002205 61 165 1.0 3.0 0.00 0.00 0.00 61 1019.6
20260509001704 61 174 1.0 3.0 0.00 0.00 0.00 61 1019.6
20260509000205 61 195 0.0 2.0 0.00 0.00 0.00 60 1019.6
20260508235705 62 279 1.0 2.0 0.00 0.00 0.00 60 1019.6
20260508233705 62 181 0.0 2.0 0.00 0.00 0.00 59 1019.6
20260508233204 62 134 1.0 2.0 0.00 0.00 0.00 61 1019.5
20260508232705 62 117 1.0 2.0 0.00 0.00 0.00 60 1019.4
20260508224204 62 123 1.0 2.0 0.00 0.00 0.00 58 1019.6
20260508223705 62 157 1.0 2.0 0.00 0.00 0.00 58 1019.7
20260508223205 62 141 1.0 3.0 0.00 0.00 0.00 59 1019.7
20260508214204 61 150 1.0 2.0 0.00 0.00 0.00 65 1019.7
20260508213704 61 206 0.0 2.0 0.00 0.00 0.00 65 1019.7
20260508213204 61 29 0.0 3.0 0.00 0.00 0.00 63 1019.7
20260508212704 61 187 0.0 3.0 0.00 0.00 0.00 64 1019.8
20260508211704 60 14 1.0 2.0 0.00 0.00 0.00 67 1019.6
20260508211204 59 183 1.0 2.0 0.00 0.00 0.00 66 1019.7
20260508210705 59 167 0.0 2.0 0.00 0.00 0.00 67 1019.6
20260508205704 58 234 1.0 2.0 0.00 0.00 0.00 68 1019.7
20260508202705 58 166 0.0 2.0 0.00 0.00 0.00 64 1019.5
20260508202205 58 277 0.0 2.0 0.00 0.00 0.00 65 1019.5
20260508201704 58 320 0.0 2.0 0.00 0.00 0.00 65 1019.5
20260508200705 57 210 0.0 2.0 0.00 0.00 0.00 67 1019.5
20260508200205 57 210 0.0 2.0 0.00 0.00 0.00 69 1019.5
20260508195205 57 273 1.0 1.0 0.00 0.00 0.00 68 1019.4
20260508191705 57 200 0.0 2.0 0.00 0.00 0.00 67 1019.3
20260508191204 57 181 1.0 2.0 0.00 0.00 0.00 66 1019.2
20260508185205 57 219 0.0 2.0 0.00 0.00 0.00 67 1019.0
20260508184705 57 232 0.0 2.0 0.00 0.00 0.00 67 1019.1
20260508184204 56 188 1.0 2.0 0.00 0.00 0.00 67 1019.0
20260508183704 56 231 1.0 2.0 0.00 0.00 0.00 67 1019.1
20260508182704 57 204 0.0 2.0 0.00 0.00 0.00 67 1019.0
20260508182204 57 204 0.0 2.0 0.00 0.00 0.00 66 1018.8
20260508181705 57 208 0.0 2.0 0.00 0.00 0.00 67 1018.7
20260508180704 56 299 0.0 2.0 0.00 0.00 0.00 71 1018.7
20260508175704 56 294 0.0 1.0 0.00 0.00 0.00 72 1018.6
20260508172205 55 280 0.0 2.0 0.00 0.00 0.00 71 1018.2
20260508170705 55 211 0.0 2.0 0.00 0.00 0.00 74 1018.1
20260508170204 55 211 0.0 2.0 0.00 0.00 0.00 73 1018.0
20260508165205 54 154 0.0 2.0 0.00 0.00 0.00 73 1017.9
20260508164704 54 200 0.0 2.0 0.00 0.00 0.00 74 1017.8
20260508163705 53 76 0.0 2.0 0.00 0.00 0.00 78 1017.8
20260508163205 53 34 0.0 2.0 0.00 0.00 0.00 78 1017.8
20260508162705 53 175 0.0 2.0 0.00 0.00 0.00 79 1017.9
20260508162205 53 175 0.0 2.0 0.00 0.00 0.00 78 1017.8
20260508161204 53 207 0.0 2.0 0.00 0.00 0.00 78 1017.5
20260508160705 53 248 0.0 1.0 0.00 0.00 0.00 78 1017.5
20260508160205 53 215 0.0 2.0 0.00 0.00 0.00 77 1017.6
20260508155204 53 183 0.0 2.0 0.00 0.00 0.00 77 1017.5
20260508154204 52 186 0.0 2.0 0.00 0.00 0.00 79 1017.5
20260508151704 52 178 0.0 2.0 0.00 0.00 0.00 81 1017.7
20260508151205 51 184 0.0 1.0 0.00 0.00 0.00 83 1017.5
20260508145204 51 287 0.0 0.0 0.00 0.00 0.00 86 1017.4
20260508144704 51 287 0.0 2.0 0.00 0.00 0.00 86 1017.5
20260508143204 50 287 0.0 1.0 0.00 0.00 0.00 88 1017.2
20260508142704 50 287 0.0 1.0 0.00 0.00 0.00 87 1017.0
20260508135704 50 287 0.0 0.0 0.00 0.00 0.00 89 1016.5
20260508135205 50 287 0.0 0.0 0.00 0.00 0.00 90 1016.4
20260508134204 50 288 0.0 0.0 0.00 0.00 0.00 91 1016.3
20260508133704 50 288 0.0 2.0 0.00 0.00 0.00 91 1016.3
20260508133205 50 288 0.0 0.0 0.00 0.00 0.00 91 1016.1
20260508132704 50 288 0.0 0.0 0.00 0.00 0.00 91 1015.9
20260508131704 50 288 0.0 0.0 0.00 0.00 0.00 91 1016.0
20260508131205 50 288 0.0 0.0 0.00 0.00 0.00 92 1016.0
20260508130704 50 288 0.0 0.0 0.00 0.00 0.00 92 1015.9
20260508124705 50 288 0.0 0.0 0.00 0.00 0.00 92 1015.6
20260508124204 50 288 0.0 0.0 0.00 0.00 0.00 92 1015.4
20260508123205 50 288 0.0 0.0 0.00 0.00 0.00 92 1015.5
20260508114704 50 288 0.0 1.0 0.00 0.00 0.00 92 1015.2
20260508114204 50 288 0.0 0.0 0.00 0.00 0.00 92 1015.3
20260508113205 49 288 0.0 0.0 0.00 0.00 0.00 92 1015.2
20260508112704 50 288 0.0 0.0 0.00 0.00 0.00 92 1015.2
20260508112205 49 288 0.0 0.0 0.00 0.00 0.00 92 1015.0
20260508111704 49 288 0.0 0.0 0.00 0.00 0.00 91 1015.0
20260508111205 49 288 0.0 0.0 0.00 0.00 0.00 91 1015.0
20260508105204 49 288 0.0 0.0 0.00 0.00 0.00 91 1014.8
20260508104705 50 288 0.0 0.0 0.00 0.00 0.00 91 1014.9
20260508102205 50 288 0.0 0.0 0.00 0.00 0.00 91 1014.8
20260508101705 50 288 0.0 0.0 0.00 0.00 0.00 91 1014.8
20260508101205 50 288 0.0 0.0 0.00 0.00 0.00 90 1014.8
20260508100704 50 288 0.0 0.0 0.00 0.00 0.00 90 1014.8
20260508095204 50 288 0.0 0.0 0.00 0.00 0.00 89 1014.7
20260508094705 50 288 0.0 0.0 0.00 0.00 0.00 89 1014.6
20260508093205 50 288 0.0 0.0 0.00 0.00 0.00 89 1014.6
20260508091204 50 288 0.0 0.0 0.00 0.00 0.00 89 1014.7
20260508090705 50 288 0.0 2.0 0.00 0.00 0.00 88 1014.7
20260508090204 50 288 0.0 2.0 0.00 0.00 0.00 88 1014.8
20260508085204 50 288 0.0 2.0 0.00 0.00 0.00 88 1014.8
20260508084205 51 288 0.0 2.0 0.00 0.00 0.00 88 1014.8
20260508083204 51 288 0.0 2.0 0.00 0.00 0.00 87 1014.8
20260508082704 51 288 0.0 2.0 0.00 0.00 0.00 87 1014.8
20260508082204 51 288 0.0 2.0 0.00 0.00 0.00 87 1014.8
20260508081204 51 288 0.0 2.0 0.00 0.00 0.00 87 1014.8
20260508080704 51 288 0.0 2.0 0.00 0.00 0.00 87 1014.8
20260508075704 52 288 0.0 2.0 0.00 0.00 0.00 86 1014.8
20260508074705 52 288 0.0 2.0 0.00 0.00 0.00 86 1014.8
20260508073704 52 84 0.0 2.0 0.00 0.00 0.00 86 1014.9
20260508073204 52 84 0.0 2.0 0.00 0.00 0.00 86 1014.9
20260508072704 52 84 0.0 2.0 0.00 0.00 0.00 86 1015.0
20260508072204 52 84 0.0 2.0 0.00 0.00 0.00 86 1014.9
20260508064204 53 84 0.0 2.0 0.00 0.00 0.00 84 1015.0
20260508062705 53 84 0.0 0.0 0.00 0.00 0.00 85 1015.0
20260508062205 53 84 0.0 0.0 0.00 0.00 0.00 83 1015.0
20260508061204 53 84 0.0 0.0 0.00 0.00 0.00 84 1015.0
20260508060704 53 84 0.0 0.0 0.00 0.00 0.00 83 1015.1
20260508060204 53 84 0.0 0.0 0.00 0.00 0.00 83 1015.2
20260508054205 53 156 0.0 1.0 0.00 0.00 0.00 82 1015.2
20260508053204 54 94 0.0 2.0 0.00 0.00 0.00 82 1015.2
20260508052704 54 94 0.0 2.0 0.00 0.00 0.00 81 1015.2
20260508051704 54 94 0.0 1.0 0.00 0.00 0.00 80 1015.1
20260508051204 54 94 0.0 1.0 0.00 0.00 0.00 80 1015.2
20260508050704 54 94 0.0 1.0 0.00 0.00 0.00 79 1015.2
20260508045704 55 94 0.0 2.0 0.00 0.00 0.00 78 1015.2
20260508045204 55 94 0.0 2.0 0.00 0.00 0.00 78 1015.2
20260508044704 55 94 0.0 2.0 0.00 0.00 0.00 77 1015.2
20260508044204 55 94 0.0 2.0 0.00 0.00 0.00 77 1015.3
20260508043204 55 94 0.0 2.0 0.00 0.00 0.00 76 1015.3
20260508042704 55 94 0.0 2.0 0.00 0.00 0.00 77 1015.2
20260508035204 56 94 0.0 0.0 0.00 0.00 0.00 75 1015.3
20260508034705 56 94 0.0 0.0 0.00 0.00 0.00 75 1015.1
20260508034204 56 94 0.0 0.0 0.00 0.00 0.00 75 1015.1
20260508033204 57 94 0.0 0.0 0.00 0.00 0.00 75 1015.1
20260508032704 57 94 0.0 0.0 0.00 0.00 0.00 75 1015.2
20260508031705 57 94 0.0 0.0 0.00 0.00 0.00 74 1015.2
20260508030704 58 94 0.0 0.0 0.00 0.00 0.00 74 1015.2
20260508025705 58 94 0.0 0.0 0.00 0.00 0.00 74 1015.2
20260508024204 58 94 0.0 0.0 0.00 0.00 0.00 74 1015.4
20260508023204 59 94 0.0 0.0 0.00 0.00 0.00 73 1015.4
20260508022704 59 94 0.0 0.0 0.00 0.00 0.00 72 1015.4
20260508022204 59 94 0.0 0.0 0.00 0.00 0.00 71 1015.4
20260508021204 60 94 0.0 0.0 0.00 0.00 0.00 70 1015.4
20260508020704 60 94 0.0 0.0 0.00 0.00 0.00 70 1015.5
20260508015704 61 94 0.0 0.0 0.00 0.00 0.00 69 1015.5
20260508015204 61 95 0.0 1.0 0.00 0.00 0.00 67 1015.5
20260508013705 61 132 0.0 2.0 0.00 0.00 0.00 68 1015.6
20260508011704 61 90 0.0 2.0 0.00 0.00 0.00 67 1015.8
20260508010204 62 214 0.0 2.0 0.00 0.00 0.00 66 1015.9
20260508005205 62 200 0.0 1.0 0.00 0.00 0.00 62 1016.0
20260508004704 62 200 0.0 2.0 0.00 0.00 0.00 63 1016.1